SWA2178 KBNA-KMIA

Flight info

Callsign SWA2178
Flight time N/A
Altitude 35000
Route FLAME3 GENDE ACORI FROGZ4
Aircraft B738/M-SDE2E3FGHIRWXY/LB1

Departure

Time 2026-05-04 21:20
Airport Nashville International Airport (KBNA)

Arrival

Time N/A
Airport Miami International Airport (KMIA)
Time Latitude Longitude Altitude Speed Heading
2026-05-04 20:54 36.12818 -86.67037 608 ft 0 kts 41°
2026-05-04 21:10 36.12815 -86.67040 608 ft 2 kts 42°
2026-05-04 21:10 36.12806 -86.67054 608 ft 2 kts 62°
2026-05-04 21:10 36.12800 -86.67072 608 ft 2 kts 76°
2026-05-04 21:10 36.12798 -86.67089 608 ft 2 kts 91°
2026-05-04 21:11 36.12800 -86.67107 608 ft 2 kts 107°
2026-05-04 21:11 36.12806 -86.67124 608 ft 2 kts 121°
2026-05-04 21:11 36.12812 -86.67133 608 ft 0 kts 130°
2026-05-04 21:11 36.12812 -86.67134 608 ft 0 kts 130°
2026-05-04 21:12 36.12812 -86.67133 608 ft 0 kts 130°
2026-05-04 21:12 36.12812 -86.67134 608 ft 0 kts 130°
2026-05-04 21:13 36.12812 -86.67133 608 ft 0 kts 130°
2026-05-04 21:13 36.12812 -86.67134 608 ft 0 kts 130°
2026-05-04 21:14 36.12812 -86.67133 608 ft 0 kts 130°
2026-05-04 21:14 36.12812 -86.67134 608 ft 0 kts 130°
2026-05-04 21:14 36.12812 -86.67133 608 ft 0 kts 130°
2026-05-04 21:15 36.12805 -86.67124 608 ft 4 kts 130°
2026-05-04 21:15 36.12772 -86.67088 608 ft 8 kts 157°
2026-05-04 21:15 36.12720 -86.67105 608 ft 7 kts 216°
2026-05-04 21:15 36.12670 -86.67158 608 ft 11 kts 222°
2026-05-04 21:16 36.12603 -86.67236 608 ft 14 kts 223°
2026-05-04 21:16 36.12569 -86.67274 608 ft 6 kts 222°
2026-05-04 21:16 36.12522 -86.67328 608 ft 12 kts 223°
2026-05-04 21:16 36.12443 -86.67415 608 ft 15 kts 220°
2026-05-04 21:17 36.12364 -86.67495 608 ft 13 kts 223°
2026-05-04 21:17 36.12297 -86.67571 608 ft 12 kts 224°
2026-05-04 21:17 36.12300 -86.67651 608 ft 10 kts 312°
2026-05-04 21:17 36.12341 -86.67710 608 ft 8 kts 307°
2026-05-04 21:18 36.12360 -86.67770 608 ft 6 kts 287°
2026-05-04 21:18 36.12368 -86.67804 608 ft 5 kts 285°
2026-05-04 21:18 36.12387 -86.67877 608 ft 11 kts 288°
2026-05-04 21:18 36.12387 -86.67969 608 ft 10 kts 226°
2026-05-04 21:19 36.12352 -86.67989 608 ft 0 kts 197°
2026-05-04 21:19 36.12301 -86.68009 608 ft 32 kts 198°
2026-05-04 21:19 36.11832 -86.68198 608 ft 108 kts 199°
2026-05-04 21:19 36.10882 -86.68571 671 ft 169 kts 197°
2026-05-04 21:20 36.09762 -86.68973 1566 ft 171 kts 197°
2026-05-04 21:20 36.08694 -86.69391 2434 ft 165 kts 200°
2026-05-04 21:20 36.07546 -86.69820 2923 ft 181 kts 195°
2026-05-04 21:20 36.06279 -86.70011 3581 ft 189 kts 184°
2026-05-04 21:21 36.04938 -86.70018 4127 ft 201 kts 185°
2026-05-04 21:21 36.03478 -86.70186 4585 ft 221 kts 189°
2026-05-04 21:21 36.01894 -86.70419 5133 ft 238 kts 188°
2026-05-04 21:21 36.00210 -86.70630 5722 ft 253 kts 188°
2026-05-04 21:22 35.98416 -86.70830 6363 ft 266 kts 187°
2026-05-04 21:22 35.96579 -86.71024 7268 ft 267 kts 188°
2026-05-04 21:22 35.94719 -86.71221 8174 ft 268 kts 188°
2026-05-04 21:22 35.92878 -86.71421 8983 ft 272 kts 188°
2026-05-04 21:23 35.90984 -86.71628 9817 ft 275 kts 189°
2026-05-04 21:23 35.89059 -86.71837 10446 ft 285 kts 188°
2026-05-04 21:23 35.87077 -86.72052 10893 ft 301 kts 188°
2026-05-04 21:23 35.84957 -86.72280 11388 ft 316 kts 188°
2026-05-04 21:24 35.82821 -86.72510 11807 ft 332 kts 188°
2026-05-04 21:24 35.80489 -86.72760 12351 ft 344 kts 188°
2026-05-04 21:24 35.78110 -86.73012 13109 ft 348 kts 188°
2026-05-04 21:24 35.76567 -86.73174 13575 ft 351 kts 188°
2026-05-04 21:25 35.73377 -86.73513 14511 ft 357 kts 188°
2026-05-04 21:25 35.70911 -86.73783 15215 ft 361 kts 189°
2026-05-04 21:25 35.68404 -86.74196 15951 ft 363 kts 193°
2026-05-04 21:25 35.65933 -86.74754 16594 ft 366 kts 195°
2026-05-04 21:26 35.63406 -86.75386 17294 ft 370 kts 195°
2026-05-04 21:26 35.60880 -86.76024 17919 ft 374 kts 195°
2026-05-04 21:26 35.58332 -86.76653 18555 ft 378 kts 195°
2026-05-04 21:26 35.55753 -86.77268 19134 ft 383 kts 194°
2026-05-04 21:27 35.53090 -86.77745 19746 ft 389 kts 190°
2026-05-04 21:27 35.50369 -86.78019 20350 ft 394 kts 187°
2026-05-04 21:27 35.47615 -86.78194 20893 ft 400 kts 187°
2026-05-04 21:27 35.44809 -86.78338 21461 ft 404 kts 186°
2026-05-04 21:28 35.42017 -86.78475 22019 ft 408 kts 186°
2026-05-04 21:28 35.39179 -86.78626 22548 ft 412 kts 186°
2026-05-04 21:28 35.37275 -86.78735 22916 ft 414 kts 187°
2026-05-04 21:28 35.34385 -86.78909 23402 ft 418 kts 187°
2026-05-04 21:29 35.30473 -86.79157 24148 ft 421 kts 187°
2026-05-04 21:29 35.27545 -86.79348 24606 ft 426 kts 187°
2026-05-04 21:29 35.24617 -86.79540 25124 ft 428 kts 187°
2026-05-04 21:29 35.21648 -86.79737 25587 ft 431 kts 187°
2026-05-04 21:30 35.18621 -86.79937 26004 ft 435 kts 187°
2026-05-04 21:30 35.15583 -86.80138 26498 ft 437 kts 187°
2026-05-04 21:30 35.12565 -86.80341 26918 ft 440 kts 187°
2026-05-04 21:30 35.09518 -86.80545 27342 ft 443 kts 187°
2026-05-04 21:31 35.03344 -86.80952 28217 ft 447 kts 187°
2026-05-04 21:31 35.00250 -86.81157 28621 ft 450 kts 187°
2026-05-04 21:31 34.97104 -86.81366 28973 ft 454 kts 187°
2026-05-04 21:32 34.93940 -86.81575 29391 ft 456 kts 187°
2026-05-04 21:32 34.90808 -86.81782 29810 ft 458 kts 187°
2026-05-04 21:32 34.87632 -86.81993 30228 ft 459 kts 187°
2026-05-04 21:32 34.84574 -86.82159 30781 ft 457 kts 186°
2026-05-04 21:33 34.81487 -86.82155 31387 ft 456 kts 181°
2026-05-04 21:33 34.78323 -86.81776 31813 ft 460 kts 175°
2026-05-04 21:33 34.75263 -86.81049 32220 ft 462 kts 171°
2026-05-04 21:33 34.72385 -86.80166 32588 ft 464 kts 168°
2026-05-04 21:34 34.69358 -86.79129 32941 ft 465 kts 167°
2026-05-04 21:34 34.66258 -86.78021 33358 ft 465 kts 167°
2026-05-04 21:34 34.63183 -86.76918 33807 ft 463 kts 168°
2026-05-04 21:34 34.60072 -86.75819 34137 ft 463 kts 168°
2026-05-04 21:35 34.58019 -86.75108 34345 ft 464 kts 168°
2026-05-04 21:35 34.53896 -86.73705 34675 ft 465 kts 168°
2026-05-04 21:35 34.50782 -86.72662 34871 ft 467 kts 169°
2026-05-04 21:36 34.44475 -86.70572 34971 ft 470 kts 169°
2026-05-04 21:36 34.38224 -86.68516 34960 ft 467 kts 169°
2026-05-04 21:37 34.31933 -86.66457 34976 ft 470 kts 170°
2026-05-04 21:37 34.25641 -86.64401 34986 ft 469 kts 170°
2026-05-04 21:38 34.19307 -86.62340 34987 ft 471 kts 169°
2026-05-04 21:38 34.14053 -86.60626 34969 ft 470 kts 169°
2026-05-04 21:39 34.07683 -86.58556 34967 ft 472 kts 170°